Location: Newark
(40.3500°N, 15.2333°E)
Time: 08:46:09
(UTC+00:00)

Vanguard 3 - All Passes

Search period start: 29 January 2020 00:00
Search period end: 08 February 2020 00:00
Orbit: 507 x 3264 km, 33.4° (Epoch: 28 January)

Date Brightness Start Highest point End Pass type
(mag) Time Alt. Az. Time Alt. Az. Time Alt. Az.
29 Jan - 13:09:05 10° SSW 13:23:14 35° SE 13:39:45 10° E daylight
29 Jan - 15:19:58 10° SW 15:38:12 60° SSE 15:56:16 10° E daylight
29 Jan - 17:34:49 10° W 17:54:43 69° S 18:10:11 10° ESE visible
29 Jan - 19:51:58 10° W 20:09:58 53° SSW 20:21:52 10° SE visible
29 Jan - 22:11:31 10° W 22:22:05 22° SW 22:29:42 10° S visible
30 Jan - 11:57:23 10° S 12:08:05 22° SE 12:20:56 10° E daylight
30 Jan - 14:05:24 10° SW 14:21:36 50° SSE 14:39:58 10° E daylight
30 Jan - 16:18:27 10° WSW 16:37:42 69° S 16:55:10 10° E visible
30 Jan - 18:34:28 10° W 18:54:02 64° SSW 19:08:11 10° ESE visible
30 Jan - 20:52:30 10° W 21:07:53 37° SW 21:18:16 10° SSE visible
31 Jan - 10:50:54 10° SE 10:53:42 11° SE 10:56:39 10° ESE daylight
31 Jan - 12:51:59 10° SSW 13:05:41 38° SE 13:22:43 10° E daylight
31 Jan - 15:03:00 10° WSW 15:20:40 63° SSE 15:39:24 10° E daylight
31 Jan - 17:17:35 10° W 17:37:20 69° S 17:53:42 10° ESE visible
31 Jan - 19:34:29 10° W 19:52:45 51° SSW 20:05:29 10° SE visible
31 Jan - 21:54:25 10° W 22:04:58 21° SW 22:12:55 10° S visible
01 Feb - 11:40:03 10° S 11:50:38 25° SE 12:04:02 10° E daylight
01 Feb - 13:48:30 10° SW 14:04:02 53° SSE 14:22:53 10° E daylight
01 Feb - 16:01:27 10° WSW 16:20:13 70° S 16:38:27 10° E daylight
01 Feb - 18:17:08 10° W 18:36:41 62° SSW 18:51:43 10° ESE visible
01 Feb - 20:35:05 10° W 20:50:39 35° SW 21:01:43 10° SSE visible
02 Feb - 10:31:36 10° SE 10:36:24 12° SE 10:41:48 10° ESE daylight
02 Feb - 12:35:06 10° SSW 12:48:12 40° SE 13:05:30 10° E daylight
02 Feb - 14:46:10 10° WSW 15:03:09 65° SSE 15:22:26 10° E daylight
02 Feb - 17:00:29 10° W 17:19:53 69° S 17:37:05 10° ESE visible
02 Feb - 19:17:05 10° W 19:35:25 48° SSW 19:48:57 10° SE visible
02 Feb - 21:37:26 10° W 21:47:46 19° SW 21:55:53 10° SSW visible
03 Feb - 11:23:01 10° S 11:33:16 27° SE 11:46:56 10° E daylight
03 Feb - 13:31:48 10° SW 13:46:34 56° SSE 14:05:41 10° E daylight
03 Feb - 15:44:36 10° WSW 16:02:44 70° S 16:21:36 10° E daylight
03 Feb - 17:59:55 10° W 18:19:15 60° SSW 18:35:07 10° SE visible
03 Feb - 20:17:46 10° W 20:33:19 32° SW 20:44:58 10° SSE visible
04 Feb - 10:13:36 10° SSE 10:19:10 14° SE 10:25:46 10° E daylight
04 Feb - 12:18:25 10° SSW 12:30:48 43° SE 12:48:10 10° E daylight
04 Feb - 14:29:30 10° WSW 14:45:41 66° SSE 15:05:20 10° E daylight
04 Feb - 16:43:32 10° W 17:02:24 67° S 17:20:19 10° ESE visible
04 Feb - 18:59:48 10° W 19:17:58 46° SSW 19:32:15 10° SE visible
04 Feb - 21:20:42 10° W 21:30:28 17° SW 21:38:31 10° SSW visible
05 Feb - 11:06:13 10° S 11:15:59 29° SE 11:29:42 10° E daylight
05 Feb - 13:15:15 10° SW 13:29:11 58° SSE 13:48:21 10° E daylight
05 Feb - 15:27:52 10° W 15:45:16 70° S 16:04:38 10° ESE daylight
05 Feb - 17:42:49 10° W 18:01:44 57° SSW 18:18:21 10° SE visible
05 Feb - 20:00:36 10° W 20:15:53 30° SW 20:28:00 10° S visible
06 Feb - 09:56:12 10° SSE 10:02:02 15° SE 10:09:17 10° E daylight
06 Feb - 12:01:55 10° SW 12:13:32 45° SSE 12:30:43 10° E daylight
06 Feb - 14:12:59 10° WSW 14:28:17 67° S 14:48:07 10° E daylight
06 Feb - 16:26:41 10° W 16:44:54 66° SSW 17:03:25 10° ESE visible
06 Feb - 18:42:38 10° W 19:00:26 43° SW 19:15:21 10° SSE visible
06 Feb - 21:04:18 10° W 21:13:05 15° SW 21:20:43 10° SSW visible
07 Feb - 10:49:37 10° SSW 10:58:50 30° SE 11:12:21 10° E daylight
07 Feb - 12:58:52 10° SW 13:11:54 60° SSE 13:30:56 10° E daylight
07 Feb - 15:11:17 10° W 15:27:49 69° S 15:47:31 10° ESE daylight
07 Feb - 17:25:52 10° W 17:44:11 55° SSW 18:01:24 10° SE visible
07 Feb - 19:43:37 10° W 19:58:22 27° SW 20:10:46 10° S visible
